Voltar ao catálogo

STARLINK-2725

AtivoComunicaçõesVLEO
NORAD 48681·PAYLOAD·🇺🇸 United States

Lançado May 26, 2021 de Cape Canaveral Space Force Station

Loading…

Próximas Passagens (próximas 24 horas)

TLE

AtualizadoSource: CelesTrak SupGP

Época: Sep 14, 2026, 21:16 UTC

1 48681C 21044AV  26257.88659722  .00046142  00000+0  14836-2 0  2574
2 48681  53.1564 275.1401 0001203 100.8747 307.8683 15.31684048    12

Acompanhe STARLINK-2725 em tempo real com AllMySat

Download on the App Store